CAPE
0 0 0 0 0 0 0 0 0 0 0 0 0 0 0 0 0 0 0 0 0 0 0 3 35 117 274 393 393 226 269 303 489 451 786 1039 1040 1050 805 685 1182 1304 1288 1127 1138 1098 1050 977 1112 1178 1335 1736 1619 1539 1867 1890 1905 1977 2200 2108 2368 2214 2275 2292 2309 2338 2327 2450 2558 2460 2288 2152 2203 2345 2390 2816 2630 2323 2149 2055 1982 1991 2238 2189 2394 2568
0 0 0 0 0 0 0 0 0 0 0 0 0 0 0 0 0 0 0 0 0 0 0 1 43 119 188 365 363 410 215 499 447 437 498 984 1042 1010 692 816 1274 1392 1312 1662 1612 1158 859 1366 1320 1232 1875 2028 1778 1862 2072 2098 2124 2122 2332 2205 2443 2378 2309 2329 2235 2338 2306 2365 2495 2458 2478 2348 2320 2134 2580 2155 2273 2451 2280 2062 2083 2122 2312 2713 2641 2580
0 0 0 0 0 0 0 0 0 0 0 0 0 0 0 0 0 0 0 0 0 0 0 3 44 54 60 43 85 378 360 280 379 114 242 786 930 901 768 928 1230 1241 1788 1810 1768 1592 1243 1862 1684 1773 2100 2022 1810 2023 2165 2314 2431 2343 2335 2322 2603 2260 2387 2372 2314 2275 2234 2298 2274 2160 2162 2267 2280 2255 2171 2141 2076 2139 2179 1894 2068 2930 2971 3061 2842 2650
0 0 0 0 0 0 0 0 0 0 0 0 0 0 0 0 0 0 0 0 0 0 0 5 14 8 10 3 35 262 269 239 179 103 297 642 756 794 879 984 1118 1291 1842 1805 2027 1974 1680 2138 1985 2032 2216 2252 2147 2211 2163 2431 2658 2528 2422 2296 2280 2392 2290 2321 2254 2497 2123 2131 2186 1974 1716 1854 1966 1855 2076 1765 1567 2060 2025 1830 2198 2936 3058 2876 2749 2613
0 0 0 0 0 0 0 0 0 0 0 0 0 0 0 1 0 0 0 0 0 1 3 0 0 0 0 0 7 52 196 227 264 219 390 592 655 716 958 1022 1109 1398 1757 1839 1963 2196 2041 2160 2159 2173 2365 2433 2372 2377 2284 2303 2616 2553 2570 2370 2035 2308 2326 2150 2494 2688 2210 2419 2396 2038 1822 2193 1764 952 1276 1247 806 1758 2177 1971 2172 2417 2437 2419 2486 2053
0 0 0 0 0 0 0 0 0 0 0 0 0 0 0 0 0 0 6 3 4 5 0 6 1 0 0 0 1 165 45 106 246 323 460 605 637 771 1060 1149 1210 1498 1670 1848 2021 2171 2173 2217 2126 2118 2396 2534 2453 2430 2399 2400 2502 2492 2409 2298 1959 2204 2323 2162 2482 2485 2378 2652 2152 2039 1998 1579 1024 649 330 399 92 137 50 41 379 1202 1841 2059 769 730
0 0 0 0 0 0 0 0 0 0 0 0 0 0 0 0 0 6 24 6 2 1 23 18 12 29 0 0 0 137 38 22 213 407 460 609 659 758 1101 1273 1310 1584 1742 1798 2036 2124 2172 2234 2226 2182 2239 2410 2501 2422 2415 2418 2467 2466 2302 2302 2071 2101 2243 2059 2463 2292 2590 2331 1936 1742 1592 1360 464 399 27 0 0 0 0 0 99 220 352 214 322 494
0 0 0 0 0 0 0 0 0 0 0 0 0 0 0 0 1 3 41 4 7 6 37 28 0 43 9 0 51 38 2 2 28 262 441 563 617 714 875 1287 1410 1602 1787 1859 2025 2130 2180 2190 2207 2206 2233 2262 2440 2416 2383 2379 2326 2385 2323 2349 2157 2068 2484 2300 2408 2238 2363 2096 1880 1543 1258 919 131 40 45 134 308 182 135 1 137 107 209 74 25 86
0 0 0 0 0 0 0 0 0 0 0 0 0 0 0 0 0 18 49 47 40 29 43 0 46 42 0 20 45 10 0 0 9 85 268 431 556 651 691 1104 1442 1616 1809 1844 1983 2112 2170 2160 2169 2181 2223 2279 2395 2414 2379 2334 2253 2323 2313 2340 2208 2342 2530 2481 2506 2230 2235 1978 1878 1669 1099 530 220 63 22 673 1062 292 69 2 150 122 248 92 293 384
0 0 0 0 0 0 0 0 0 0 0 0 0 0 0 0 0 3 32 45 34 18 22 12 38 47 32 50 42 23 0 29 78 113 218 362 479 584 634 842 1317 1517 1754 1822 1892 2052 2121 2101 2080 2145 2127 2255 2406 2421 2420 2430 2322 2329 2336 2376 2227 2525 2564 2531 2602 2408 2243 1920 1918 1672 880 73 423 460 138 2 32 69 9 9 183 203 39 2 0 69
0 0 0 0 0 0 0 0 0 0 0 0 0 0 0 0 0 0 27 33 28 0 0 0 24 5 26 31 34 20 16 54 59 80 177 309 399 520 639 808 1180 1404 1624 1790 1822 1909 2040 2084 2075 2075 2062 2172 2351 2402 2427 2454 2425 2374 2396 2444 2389 2570 2543 2505 2484 2410 2294 1967 1428 838 330 26 23 26 0 0 52 64 0 0 65 18 0 0 15 346
0 0 0 0 0 0 0 0 0 0 0 0 0 0 0 0 0 0 0 14 0 0 0 2 9 0 0 0 1 13 19 26 43 71 105 289 391 499 637 879 1179 1393 1500 1687 1754 1821 1951 2067 2093 2055 2036 2065 2268 2343 2403 2439 2473 2439 2426 2483 2475 2580 2510 2402 2354 2253 2244 1892 1501 611 7 8 0 0 0 0 0 1 0 4 62 4 0 0 42 32
0 0 0 0 0 0 0 0 0 0 0 0 0 0 0 0 0 0 0 0 0 0 0 0 2 2 0 0 20 17 31 19 23 59 84 185 362 462 576 870 1243 1448 1437 1558 1654 1710 1870 2018 2099 2103 2064 2051 2184 2277 2331 2360 2440 2477 2456 2582 2520 2543 2561 2480 2256 1960 1476 1120 591 27 2 0 0 0 0 0 1 71 52 31 24 31 0 78 10 0
0 0 0 0 0 0 0 0 0 0 0 0 0 0 0 0 0 0 0 0 0 0 0 0 0 0 0 0 1 22 27 66 44 54 45 104 266 375 498 795 1213 1509 1458 1468 1568 1599 1660 1865 2041 2141 2128 2109 2014 2184 2260 2282 2380 2486 2463 2634 2562 2527 2505 2341 2128 1933 918 0 24 0 0 0 0 0 0 0 0 102 0 0 0 0 0 4 0 136
0 0 0 0 0 0 0 0 0 0 0 0 0 0 0 0 0 0 0 0 0 0 0 0 0 0 0 0 0 43 74 79 74 48 55 68 188 308 407 636 989 1394 1504 1437 1508 1560 1484 1583 1808 1903 1963 1973 1924 2040 2184 2226 2367 2486 2463 2574 2578 2517 2391 2192 2024 1408 682 0 6 0 0 0 0 0 0 0 7 181 0 0 0 0 0 0 1 72
0 0 0 0 0 0 0 0 0 0 0 0 0 0 0 0 0 0 0 0 0 0 0 0 0 0 0 0 6 25 71 54 59 45 63 59 149 280 320 508 738 1031 1320 1377 1382 1433 1388 1406 1603 1639 1652 1692 1733 1938 2075 2212 2344 2403 2421 2455 2447 2378 2359 2366 1856 1356 796 0 0 0 0 0 3 106 0 107 262 7 0 0 0 0 0 0 0 4
0 0 0 0 0 0 0 0 0 0 0 0 0 0 0 0 0 0 0 0 0 0 0 0 0 0 0 0 0 7 49 84 34 68 67 62 86 180 250 446 602 780 1055 1191 1174 1224 1298 1303 1357 1415 1412 1382 1563 1836 1996 2193 2296 2328 2332 2355 2336 2240 2238 2032 1671 1428 819 19 0 0 0 0 22 40 0 55 30 0 0 0 0 0 0 0 0 0
0 0 0 0 0 0 0 0 0 0 0 0 0 0 0 0 0 0 0 0 0 0 0 0 0 0 0 0 0 21 50 78 84 86 82 88 71 6 4 125 560 638 777 908 971 995 1092 1202 1216 1266 1320 1322 1513 1786 1960 2177 2279 2278 2262 2261 2246 2142 2045 1859 1681 1542 588 104 0 0 0 0 14 8 0 0 6 0 0 24 0 0 0 0 16 31
0 0 0 0 0 0 0 0 0 0 0 0 0 0 0 0 0 0 0 0 0 0 0 0 0 0 0 0 0 18 74 95 100 106 101 96 34 9 2 6 133 426 664 763 817 828 883 1023 1097 1162 1292 1354 1492 1800 1987 2190 2274 2250 2207 2183 2137 2043 1919 1782 1724 1444 304 112 15 0 0 0 0 0 0 0 0 0 0 17 0 0 0 0 25 159
0 0 0 0 0 0 0 0 0 0 0 0 0 0 0 0 0 0 0 0 0 0 0 0 0 0 0 0 0 1 62 90 111 123 126 105 11 9 8 10 42 172 550 657 722 759 773 840 951 1123 1265 1363 1487 1778 1999 2193 2272 2240 2177 2108 2077 2041 1960 1885 1784 1017 116 67 22 1 0 18 5 0 0 0 0 0 0 0 0 0 0 0 2 0
0 0 0 0 0 0 0 0 0 0 0 0 0 0 0 0 0 0 0 0 0 0 0 0 0 0 0 0 0 0 38 75 82 114 148 123 10 15 121 13 32 149 424 518 253 643 731 756 844 1110 1242 1309 1405 1728 1976 2208 2266 2219 2140 2066 2030 1999 1950 1864 1679 568 339 372 30 26 5 14 17 0 0 0 0 0 0 0 0 0 0 0 0 0
0 0 0 0 0 0 0 0 0 0 0 0 0 0 0 0 0 0 0 0 0 0 0 0 0 0 0 0 1 4 43 73 76 84 102 89 56 6 7 182 17 53 277 88 431 487 592 666 748 993 1205 1252 1292 1646 1930 2200 2274 2196 2106 2049 1994 1956 1890 1757 1592 971 438 402 152 33 13 6 28 5 6 10 0 0 0 0 0 0 0 0 0 0
0 0 0 0 0 0 0 0 0 0 0 0 0 0 0 0 0 0 0 0 0 0 0 0 0 0 0 0 0 0 0 57 66 21 0 5 9 4 3 9 4 28 63 51 41 58 395 689 728 815 1045 1199 1202 1493 1817 2103 2241 2190 2108 2039 2022 1934 1822 1682 1468 938 438 317 272 174 28 27 8 0 0 5 0 0 0 0 0 0 0 0 0 0
7 0 0 0 0 0 0 0 0 0 0 0 0 0 0 0 0 0 0 0 0 0 0 15 0 0 0 3 0 0 0 0 0 0 0 4 3 10 8 0 0 21 51 55 373 62 438 632 786 785 838 994 1107 1357 1668 1993 2176 2190 2106 2050 1989 1901 1772 1644 1529 1050 830 549 441 319 63 69 10 1 0 0 0 0 0 0 12 0 0 0 0 0
0 0 0 0 0 0 0 0 0 0 0 0 0 0 0 0 0 0 0 0 0 0 0 0 0 0 0 48 0 0 0 0 0 0 0 0 6 74 23 4 2 50 86 225 393 424 425 570 745 797 802 920 1071 1254 1547 1835 2096 2140 2102 2043 1997 1898 1801 1644 1491 1111 614 513 450 393 305 68 11 7 0 1 1 0 0 66 243 2 0 0 0 0
0 0 0 0 0 0 0 0 0 0 0 0 0 0 0 0 0 0 0 2 0 0 0 0 0 0 0 0 0 0 0 0 0 0 0 0 5 31 126 36 57 82 304 357 378 420 411 650 772 837 873 934 1075 1215 1433 1683 1924 2047 2058 2040 1994 1923 1806 1681 1535 1341 863 718 608 637 475 281 4 4 1 0 4 13 3 34 0 0 0 0 0 0
0 0 0 0 0 0 0 0 0 0 0 0 0 0 0 0 0 0 0 0 0 0 0 0 0 0 0 4 0 0 0 0 0 0 0 4 58 112 220 175 252 329 387 425 456 447 502 691 857 842 859 963 1099 1192 1366 1586 1767 1883 1956 1994 1968 1910 1782 1707 1646 1504 1056 940 847 743 549 453 253 1 0 40 31 62 156 116 5 0 0 0 0 0
0 0 0 0 0 0 0 0 0 0 0 0 0 0 0 0 0 0 0 0 0 0 0 0 0 0 0 0 0 0 0 0 0 0 0 8 54 131 178 360 645 433 476 493 517 556 620 782 988 1060 994 1067 1194 1269 1388 1558 1679 1759 1811 1869 1872 1850 1801 1740 1645 1574 1283 1103 838 777 547 300 120 6 71 134 99 74 163 121 4 0 0 0 0 0
0 0 0 0 0 0 0 0 0 0 2 5 2 0 0 0 0 0 0 0 0 0 0 0 0 0 0 1 0 0 0 0 0 0 0 3 2 122 320 442 551 551 560 547 525 528 626 777 954 1124 1207 1198 1254 1352 1464 1582 1702 1720 1741 1767 1769 1754 1771 1717 1663 1604 1422 1211 1072 543 0 34 23 228 254 177 82 51 153 143 1 0 0 0 0 0
0 0 0 0 4 8 5 0 0 0 7 8 6 5 7 4 0 0 0 8 0 0 0 0 0 0 0 0 0 0 0 0 0 0 0 0 0 10 246 624 687 610 642 690 653 631 597 594 704 997 1262 1358 1382 1432 1514 1578 1644 1739 1734 1714 1712 1690 1677 1703 1674 1583 1324 1140 930 534 178 256 161 326 348 279 73 99 148 78 2 0 0 0 0 0
0 0 63 0 13 36 31 11 4 7 16 25 20 38 34 23 16 12 5 5 3 3 0 0 0 2 0 0 0 0 0 0 0 0 0 0 0 4 308 733 754 708 688 744 744 799 814 731 674 653 910 1328 1517 1600 1628 1644 1662 1656 1679 1683 1642 1614 1592 1503 1394 1221 1043 1054 660 121 286 231 178 295 364 202 120 112 128 96 23 3 0 0 0 0
0 0 206 10 27 48 32 26 22 23 18 22 43 54 29 25 24 18 9 10 12 7 3 5 6 0 0 0 0 4 0 0 0 0 0 2 1 0 2 658 940 1050 1036 1129 1158 1232 1500 1673 1448 962 860 1080 1425 1573 1759 1821 1731 1703 1688 1653 1599 1567 1530 1423 1382 1306 1121 1047 776 654 408 137 229 335 306 172 168 171 149 97 248 4 0 0 0 1
24 2 0 3 26 46 46 30 34 38 46 42 60 70 42 23 20 29 42 36 28 8 3 2 0 0 1 7 11 10 9 31 30 24 3 15 11 2 0 0 584 988 1266 1524 1788 1971 2100 2119 2078 1897 1460 1180 1340 1656 1615 1746 1871 1824 1760 1627 1536 1751 1663 1495 1344 1324 1296 1189 976 706 588 576 340 340 332 177 264 290 136 376 342 12 9 13 20 42
43 0 0 0 16 25 38 46 33 40 61 48 26 24 18 45 51 66 58 29 15 16 12 1 0 0 1 15 5 44 37 41 40 22 8 4 0 0 0 0 0 0 25 337 849 1521 1958 2159 2181 2212 2105 1752 1467 1586 1670 1718 1793 1856 1822 1719 1671 1613 1447 1291 941 918 936 973 264 144 372 535 420 250 214 270 324 285 416 369 78 23 24 67 110 127
32 18 13 7 18 33 28 45 43 44 53 56 12 0 2 42 64 77 66 53 30 8 4 43 106 116 156 15 28 46 12 5 10 25 12 2 0 0 0 0 0 1 0 20 193 644 1147 1472 1886 2151 2380 2455 2317 2089 1855 1825 1824 1831 1792 1737 1568 1447 1262 1109 1130 923 675 643 554 393 503 466 242 249 352 320 299 467 472 437 80 33 36 70 62 94
39 37 39 18 27 34 35 37 40 30 23 44 57 26 12 11 10 13 16 14 10 8 18 14 71 114 136 145 132 121 97 41 25 16 13 5 0 0 0 0 8 51 29 50 22 2 77 1396 1952 2022 2258 2433 2474 2331 2171 1988 1835 1776 1786 1599 1562 1504 1360 923 816 695 584 446 402 357 338 292 285 318 424 498 536 533 510 397 77 52 37 105 71 85
28 37 29 50 20 37 47 39 35 36 126 30 34 50 26 43 39 32 35 11 24 27 19 20 16 14 19 84 115 106 60 6 44 44 5 1 0 0 0 0 0 0 80 321 741 830 768 1860 1947 1871 1918 2089 2226 2229 2201 2150 2094 2033 1913 1821 1742 1624 1510 934 941 880 732 408 402 373 289 186 277 196 140 127 338 336 153 120 91 72 97 180 178 230
30 56 2 62 18 26 33 46 51 34 32 134 13 17 7 0 0 9 32 47 15 13 154 12 9 3 13 83 45 28 25 62 47 32 6 0 0 0 0 0 197 1455 2026 2245 2144 2192 2225 2043 1922 1825 1729 1745 1882 1984 2032 2081 2095 2072 2058 1994 1909 1768 1679 1295 721 612 585 493 476 526 434 156 266 341 298 187 204 267 213 186 179 173 257 196 343 420
38 17 14 10 17 19 22 23 30 26 46 22 49 6 3 55 3 183 55 127 26 328 10 36 8 7 5 11 24 26 53 36 13 0 0 0 52 161 798 1428 1828 1929 1911 2070 2257 2187 2138 2035 1862 1912 1916 1852 1910 1975 2033 2067 2028 1991 1942 1802 1680 1656 1509 1048 704 615 589 463 540 528 332 300 447 490 478 429 441 493 431 365 391 406 400 388 382 415
40 17 14 21 25 13 12 21 18 16 19 104 81 50 23 104 8 5 16 68 32 119 347 18 21 16 18 26 22 30 41 35 17 0 0 9 374 866 1218 1416 1479 1653 1885 2019 2135 2139 2139 2053 1996 2086 2103 2158 2231 2186 1957 1921 1901 1823 1615 1368 1248 1239 1061 755 564 527 487 434 389 381 372 602 688 758 690 656 673 653 494 453 460 468 443 472 464 441
32 45 27 25 10 6 0 2 13 13 301 77 171 63 164 21 2 0 36 267 318 178 176 15 50 36 24 16 17 18 5 6 24 80 240 211 557 806 1016 1239 1314 1351 1549 1846 1934 1996 1865 1870 1821 1941 2091 2107 2099 1992 1830 1714 1658 1634 1535 1378 1168 1054 868 631 493 443 428 371 381 308 460 838 1014 1065 922 874 837 740 553 536 545 518 561 568 571 532
10 28 27 9 2 2 0 0 12 275 548 201 171 116 394 78 25 44 195 261 251 287 298 235 177 91 103 103 71 40 23 11 36 392 595 826 1195 1248 1121 1260 1270 1315 1497 1606 1780 1836 1937 2144 2234 2246 2141 2003 1883 1748 1610 1585 1620 1543 1444 1340 1294 1276 1075 681 604 637 578 448 291 299 396 764 1116 1301 1183 1048 1004 914 745 601 592 595 546 564 199 0
6 9 15 13 80 10 7 14 11 10 63 263 102 254 396 246 576 142 136 231 196 222 221 243 174 158 132 94 68 63 54 32 211 533 782 1142 1571 1546 1296 1123 1051 1149 1343 1525 1885 1977 2075 2206 2219 2158 1864 1747 1667 1592 1559 1646 1719 1691 1565 1446 1364 1216 1103 1068 987 860 638 387 14 340 474 805 1116 1262 1334 1346 1262 1029 830 725 750 781 656 437 0 80
14 27 6 88 247 6 10 29 17 222 253 154 215 346 366 319 363 486 29 55 64 51 37 47 81 135 134 90 70 73 62 46 94 827 1196 1709 1900 1811 1539 1219 1086 1216 1363 1574 1674 2001 2082 2111 2102 1853 1626 1514 1562 1560 1628 1755 1821 1720 1454 1273 998 895 838 758 692 636 571 480 466 529 619 864 1035 1192 1241 1270 1141 863 645 805 859 826 580 387 283 268
92 122 0 17 332 414 156 67 82 296 303 324 391 369 390 341 313 296 34 19 26 39 43 44 487 532 396 69 400 81 192 445 442 898 1144 1362 1814 1844 1663 1422 1394 1410 1473 1618 1824 2114 2218 2283 1829 1576 1431 1516 1549 1616 1753 1803 1759 1469 1160 887 672 518 133 0 2 461 490 480 649 696 890 993 1062 1054 1018 1102 1097 997 918 760 986 700 518 301 237 91
83 340 272 57 26 16 21 4 194 292 299 20 3 358 381 415 415 334 286 24 34 25 24 45 514 562 566 545 693 881 1002 1297 1622 1512 1224 967 1189 1664 1827 1842 1899 1970 2056 2122 2204 2197 2174 1935 1562 1435 1370 1478 1518 1620 1686 1629 1448 1166 880 634 476 182 87 82 50 352 500 692 910 1028 1012 1109 1167 1029 883 892 890 851 779 644 458 296 231 292 204 0
458 466 252 188 313 4 65 0 65 56 251 294 276 126 301 375 421 441 434 332 85 248 699 850 812 736 565 591 860 974 1244 1429 1374 1374 1284 1304 1200 1235 1608 1712 1765 1849 1834 1852 1820 1848 1871 1676 1480 1354 1284 1385 1517 1454 1271 1119 822 574 872 823 712 719 552 660 711 722 705 763 726 663 669 668 785 870 781 751 705 672 630 377 314 310 266 220 269 230
97 210 313 80 149 0 0 76 20 24 27 107 394 419 400 318 328 317 359 308 0 318 296 43 53 960 1019 934 1027 1267 1576 1421 1160 1190 1350 1424 1537 1610 1563 1416 1584 1628 1598 1591 1614 1665 1654 1536 1326 1194 1228 1346 1410 1206 930 901 1115 1141 1080 1005 981 1039 852 427 8 23 4 297 262 192 0 430 650 540 497 446 426 418 401 369 328 320 364 357 433 440
61 948 227 36 331 200 102 173 83 0 220 293 0 0 392 377 296 285 360 459 419 471 358 22 14 115 485 1066 751 356 766 1430 1441 1199 1198 1290 1327 1454 1542 1511 1331 1529 1540 1518 1559 1517 1470 1312 1128 1056 993 1019 1002 1002 920 1323 1367 1278 919 664 771 490 48 79 207 104 45 16 0 2 159 387 415 428 396 362 325 337 347 393 469 481 331 7 0 0
37 285 212 265 86 73 23 151 511 9 3 0 121 277 358 417 118 66 65 199 215 177 47 2 0 0 0 50 962 818 387 1140 1604 1073 1088 1246 1159 1248 1289 1260 1139 1250 1436 1413 1332 1250 1206 1112 1031 968 890 756 724 843 887 1170 845 731 689 632 546 223 106 493 575 80 164 25 5 160 434 504 447 411 401 421 434 460 460 388 254 74 0 0 0 0
31 104 168 295 287 204 155 205 168 7 15 31 29 4 0 0 26 69 77 69 30 4 8 8 2 0 20 54 47 1082 673 541 1099 1340 1228 1337 1423 1341 1174 1114 1070 1070 1386 1456 1466 1302 1150 1098 1045 1015 955 954 962 902 916 920 680 654 619 596 442 292 396 773 728 521 537 354 393 462 487 488 473 456 439 416 374 57 248 205 7 0 0 0 0 0
Wind_Speed
nan nan nan nan nan nan nan nan nan nan nan nan nan nan nan nan nan nan nan nan nan nan nan nan nan 25 23 22 19 17 19 18 18 15 14 16 16 15 14 14 14 13 13 9 10 10 10 10 8 5 5 5 7 7 7 7 8 8 7 7 8 8 9 9 9 9 10 9 8 7 9 10 9 9 9 9 9 10 11 11 13 13 10 10 12 12
nan nan nan nan nan nan nan nan nan nan nan nan nan nan nan nan nan nan nan nan nan nan nan nan nan 31 30 27 23 18 18 20 21 18 16 19 18 16 17 17 17 15 10 13 11 11 12 11 10 8 6 6 8 6 8 8 8 7 7 8 8 8 10 11 11 10 10 10 12 11 12 10 11 11 11 11 10 11 11 11 11 11 12 12 13 13
nan nan nan nan nan nan nan nan nan nan nan nan nan nan nan nan nan nan nan nan nan nan nan nan nan nan nan nan nan 22 21 18 20 20 19 21 19 16 17 19 18 15 16 17 16 15 15 15 13 11 8 6 8 7 8 7 7 7 8 8 8 9 10 10 10 10 11 10 11 12 11 13 11 11 12 11 10 11 10 10 11 13 14 14 13 13
nan nan nan nan nan nan nan nan nan nan nan nan nan nan nan nan nan nan nan nan nan nan nan nan nan nan nan nan nan 22 21 18 19 18 18 20 20 19 20 20 20 20 20 21 20 19 19 17 15 13 10 8 6 6 5 5 8 7 8 8 8 9 9 9 11 11 11 11 12 13 14 14 14 12 12 12 10 12 12 13 14 15 15 15 15 15
nan nan nan nan nan nan nan nan nan nan nan nan nan nan nan nan nan nan nan nan nan nan nan nan nan nan nan nan nan nan 24 23 17 16 18 20 22 24 22 19 22 24 23 21 20 20 20 19 18 16 13 11 9 7 6 6 6 6 9 9 10 10 11 11 12 13 12 11 11 11 10 12 12 11 12 13 11 12 14 14 16 16 17 18 17 16
nan nan nan nan nan nan nan nan nan nan nan nan nan nan nan nan nan nan nan nan nan nan nan nan nan nan nan nan nan 29 nan 25 19 17 18 20 21 20 21 21 18 19 20 22 21 21 21 21 19 17 15 13 10 9 7 7 6 6 7 9 10 10 12 13 13 14 14 15 16 15 15 15 15 16 17 19 nan 17 nan nan 15 17 20 20 20 21
nan nan nan nan nan nan nan nan nan nan nan nan nan nan nan nan nan nan nan nan nan nan nan nan nan nan nan nan nan 28 nan nan 20 19 20 20 22 22 21 20 19 18 17 17 18 18 19 20 20 18 17 15 14 11 9 8 8 8 8 9 11 12 13 14 14 16 16 16 17 17 17 17 19 21 nan nan nan nan nan nan nan 20 20 22 24 23
nan nan nan nan nan nan nan nan nan nan nan nan nan nan nan nan nan nan nan nan nan nan nan nan nan nan nan nan nan nan nan nan nan 17 21 23 24 26 24 22 22 21 20 19 19 20 19 20 20 20 18 17 16 15 13 11 10 11 11 11 12 12 14 14 16 17 17 18 17 17 18 18 20 nan nan 20 21 21 23 nan 23 23 22 nan nan nan
nan nan nan nan nan nan nan nan nan nan nan nan nan nan nan nan nan nan nan nan nan nan nan nan nan nan nan nan nan nan nan nan nan nan 23 25 25 28 29 27 26 25 23 21 20 21 22 21 20 19 19 17 18 18 16 15 13 13 13 13 13 14 15 16 18 18 17 18 19 19 20 20 19 nan nan 21 22 23 nan nan 23 24 23 nan 22 24
nan nan nan nan nan nan nan nan nan nan nan nan nan nan nan nan nan nan nan nan nan nan nan nan nan nan nan nan nan nan nan nan nan 27 27 28 29 30 30 27 26 23 23 22 22 23 23 21 21 20 20 19 19 19 19 18 16 15 15 15 16 16 17 18 18 20 19 19 21 22 22 nan 22 23 22 nan nan nan nan nan 25 26 nan nan nan nan
nan nan nan nan nan nan nan nan nan nan nan nan nan nan nan nan nan nan nan nan nan nan nan nan nan nan nan nan nan nan nan nan nan nan 21 22 25 30 29 28 25 22 23 23 24 23 21 21 22 22 22 21 21 21 21 21 19 18 17 18 18 18 18 19 20 21 22 22 24 25 26 nan nan nan nan nan nan nan nan nan nan nan nan nan nan 27
nan nan nan nan nan nan nan nan nan nan nan nan nan nan nan nan nan nan nan nan nan nan nan nan nan nan nan nan nan nan nan nan nan nan 27 27 29 30 30 26 24 24 23 24 24 20 18 18 19 20 21 22 23 23 23 22 22 22 21 21 21 21 21 21 22 24 26 26 26 27 nan nan nan nan nan nan nan nan nan nan nan nan nan nan nan nan
nan nan nan nan nan nan nan nan nan nan nan nan nan nan nan nan nan nan nan nan nan nan nan nan nan nan nan nan nan nan nan nan nan nan nan 30 29 29 31 28 24 25 24 22 20 18 17 19 19 19 20 22 23 24 25 24 24 24 25 25 26 24 25 26 27 28 30 30 29 nan nan nan nan nan nan nan nan nan nan nan nan nan nan nan nan nan
nan nan nan nan nan nan nan nan nan nan nan nan nan nan nan nan nan nan nan nan nan nan nan nan nan nan nan nan nan nan nan nan nan nan nan 29 30 32 34 31 26 26 25 19 16 15 18 22 23 23 22 22 22 24 26 25 25 26 27 28 28 27 27 28 29 29 31 nan nan nan nan nan nan nan nan nan nan 27 nan nan nan nan nan nan nan 30
nan nan nan nan nan nan nan nan nan nan nan nan nan nan nan nan nan nan nan nan nan nan nan nan nan nan nan nan nan nan nan nan nan nan nan nan 31 34 36 35 31 26 22 17 15 17 21 26 28 27 26 24 23 24 26 25 26 27 27 29 29 29 27 28 29 28 29 nan nan nan nan nan nan nan nan nan nan 28 nan nan nan nan nan nan nan nan
nan nan nan nan nan nan nan nan nan nan nan nan nan nan nan nan nan nan nan nan nan nan nan nan nan nan nan nan nan nan nan nan nan nan nan nan 30 32 31 32 29 25 20 15 14 18 21 23 24 25 25 24 23 24 24 26 27 27 28 29 30 31 30 29 28 27 27 nan nan nan nan nan nan 21 nan 26 27 nan nan nan nan nan nan nan nan nan
nan nan nan nan nan nan nan nan nan nan nan nan nan nan nan nan nan nan nan nan nan nan nan nan nan nan nan nan nan nan nan nan nan nan nan nan nan 35 32 30 28 25 24 21 17 17 19 17 19 22 24 23 23 22 23 26 27 28 29 29 30 30 29 29 29 28 27 nan nan nan nan nan nan nan nan nan nan nan nan nan nan nan nan nan nan nan
nan nan nan nan nan nan nan nan nan nan nan nan nan nan nan nan nan nan nan nan nan nan nan nan nan nan nan nan nan nan nan nan nan nan nan nan nan nan nan 29 29 29 29 30 29 27 26 23 21 20 21 23 23 24 25 27 28 29 30 30 32 31 32 30 29 29 28 28 nan nan nan nan nan nan nan nan nan nan nan nan nan nan nan nan nan nan
nan nan nan nan nan nan nan nan nan nan nan nan nan nan nan nan nan nan nan nan nan nan nan nan nan nan nan nan nan nan nan nan 23 25 28 nan nan nan nan nan 31 33 31 29 29 26 26 23 18 17 19 21 22 23 26 27 29 30 30 30 33 35 35 34 30 30 30 30 nan nan nan nan nan nan nan nan nan nan nan nan nan nan nan nan nan 28
nan nan nan nan nan nan nan nan nan nan nan nan nan nan nan nan nan nan nan nan nan nan nan nan nan nan nan nan nan nan nan nan 24 25 27 31 nan nan nan nan nan 34 32 30 27 26 28 28 24 20 19 20 21 21 22 26 27 30 31 32 32 33 34 33 31 31 32 nan nan nan nan nan nan nan nan nan nan nan nan nan nan nan nan nan nan nan
nan nan nan nan nan nan nan nan nan nan nan nan nan nan nan nan nan nan nan nan nan nan nan nan nan nan nan nan nan nan nan nan nan 25 26 29 nan nan 34 nan nan 37 35 31 27 25 26 27 25 22 19 19 20 19 21 24 26 29 30 32 34 37 36 35 34 32 31 32 nan nan nan nan nan nan nan nan nan nan nan nan nan nan nan nan nan nan
nan nan nan nan nan nan nan nan nan nan nan nan nan nan nan nan nan nan nan nan nan nan nan nan nan nan nan nan nan nan nan nan nan nan 26 nan nan nan nan 37 nan nan 36 nan 32 29 27 26 27 24 19 17 18 19 21 22 24 27 30 31 33 35 36 37 36 34 32 31 32 nan nan nan nan nan nan nan nan nan nan nan nan nan nan nan nan nan
nan nan nan nan nan nan nan nan nan nan nan nan nan nan nan nan nan nan nan nan nan nan nan nan nan nan nan nan nan nan nan nan nan nan nan nan nan nan nan nan nan nan nan nan nan nan 29 28 26 23 22 21 22 22 23 24 27 29 31 32 33 36 35 37 38 36 34 33 33 33 nan nan nan nan nan nan nan nan nan nan nan nan nan nan nan nan
nan nan nan nan nan nan nan nan nan nan nan nan nan nan nan nan nan nan nan nan nan nan nan nan nan nan nan nan nan nan nan nan nan nan nan nan nan nan nan nan nan nan nan nan 35 nan 31 25 21 20 20 20 20 22 24 26 28 30 32 34 35 34 35 36 38 36 35 34 33 34 nan nan nan nan nan nan nan nan nan nan nan nan nan nan nan nan
nan nan nan nan nan nan nan nan nan nan nan nan nan nan nan nan nan nan nan nan nan nan nan nan nan nan nan nan nan nan nan nan nan nan nan nan nan nan nan nan nan nan nan 33 32 31 27 22 20 20 21 22 23 24 26 27 29 32 34 35 35 33 34 36 37 37 37 36 35 34 35 nan nan nan nan nan nan nan nan nan 27 nan nan nan nan nan
nan nan nan nan nan nan nan nan nan nan nan nan nan nan nan nan nan nan nan nan nan nan nan nan nan nan nan nan nan nan nan nan nan nan nan nan nan nan 35 nan nan nan 34 34 32 30 27 25 24 23 22 23 25 27 28 29 31 34 36 36 35 34 34 36 37 36 39 40 35 33 34 34 nan nan nan nan nan nan nan nan nan nan nan nan nan nan
nan nan nan nan nan nan nan nan nan nan nan nan nan nan nan nan nan nan nan nan nan nan nan nan nan nan nan nan nan nan nan nan nan nan nan nan nan 38 38 37 35 34 33 32 30 31 29 26 25 25 25 27 28 29 31 33 35 37 38 38 37 36 37 37 36 36 38 41 40 34 34 36 35 nan nan nan nan nan 25 25 nan nan nan nan nan nan
nan nan nan nan nan nan nan nan nan nan nan nan nan nan nan nan nan nan nan nan nan nan nan nan nan nan nan nan nan nan nan nan nan nan nan nan nan 42 40 38 38 36 32 27 26 29 32 30 27 24 24 27 28 31 34 37 39 40 41 42 41 41 40 36 36 37 40 42 41 38 37 37 39 nan nan 30 nan nan 26 28 nan nan nan nan nan nan
nan nan nan nan nan nan nan nan nan nan nan nan nan nan nan nan nan nan nan nan nan nan nan nan nan nan nan nan nan nan nan nan nan nan nan nan nan 42 42 41 41 39 33 29 30 33 33 32 28 25 26 27 29 32 37 39 40 41 40 40 41 44 43 39 39 39 41 44 44 45 nan nan nan 33 30 32 nan nan 25 28 nan nan nan nan nan nan
nan nan nan nan nan nan nan nan nan nan nan nan nan nan nan nan nan nan nan nan nan nan nan nan nan nan nan nan nan nan nan nan nan nan nan nan nan nan 43 43 42 39 33 31 34 35 34 33 32 31 31 30 29 33 37 39 41 44 45 43 43 44 43 42 41 40 42 48 50 47 39 34 31 32 34 36 nan nan 25 nan nan nan nan nan nan nan
nan nan nan nan nan nan nan nan nan nan nan nan nan nan nan nan nan nan nan nan nan nan nan nan nan nan nan nan nan nan nan nan nan nan nan nan nan nan 46 44 43 41 37 35 36 36 32 31 31 32 34 34 35 37 39 40 41 43 45 46 45 46 47 47 46 43 42 49 50 46 38 35 36 40 41 34 27 22 27 nan nan nan nan nan nan nan
nan nan 43 nan nan nan nan nan nan nan nan nan nan nan nan nan nan nan nan nan nan nan nan nan nan nan nan nan nan nan nan nan nan nan nan nan nan nan nan 45 44 41 38 36 35 35 32 29 29 30 32 36 40 41 42 45 47 46 47 48 47 48 49 48 47 43 42 47 47 42 38 40 46 48 41 31 26 25 30 nan 27 nan nan nan nan nan
nan nan nan nan nan nan nan nan nan nan nan nan nan nan nan nan nan nan nan nan nan nan nan nan nan nan nan nan nan nan nan nan nan nan nan nan nan nan nan nan 46 43 40 39 39 37 37 36 35 35 37 38 41 44 47 49 48 48 47 48 47 50 53 47 42 39 42 47 47 42 39 44 46 44 34 29 27 29 33 31 29 nan nan nan nan nan
nan nan nan nan nan nan nan nan nan nan nan nan nan nan nan nan nan nan nan nan nan nan nan nan nan nan nan nan nan nan nan nan nan nan nan nan nan nan nan nan nan nan nan 40 41 42 42 43 43 42 43 45 47 48 48 48 48 47 46 49 56 60 58 52 44 46 49 53 49 46 45 43 39 35 32 28 28 34 36 32 nan nan nan nan 35 36
nan nan nan nan nan nan nan nan nan nan nan nan nan nan nan nan nan nan nan nan nan nan nan nan 44 39 42 nan nan nan nan nan nan nan nan nan nan nan nan nan nan nan nan nan 43 43 43 43 47 50 52 51 49 48 49 46 45 47 46 46 50 51 52 49 48 45 48 54 55 50 44 34 29 28 26 26 31 35 34 31 nan nan nan nan nan nan
nan nan nan nan nan nan nan nan nan nan nan nan nan nan nan nan nan nan nan nan nan nan nan nan nan 43 43 46 45 44 nan nan nan nan nan nan nan nan nan nan nan nan nan nan nan nan nan 44 49 54 54 53 53 51 52 52 54 55 53 55 58 60 56 49 45 44 44 47 45 35 25 23 25 29 28 30 33 34 32 31 nan nan nan 34 nan nan
nan nan nan nan nan nan nan nan nan nan 46 nan nan nan nan nan nan nan nan nan nan nan nan nan nan nan nan nan 46 47 nan nan nan nan nan nan nan nan nan nan nan nan nan 44 44 44 42 46 51 52 50 49 50 52 51 53 54 54 53 54 56 59 56 48 44 44 47 47 42 34 32 34 35 33 32 32 33 33 34 35 nan nan nan 36 34 34
nan nan nan nan nan nan nan nan nan nan nan 44 nan nan nan nan nan nan nan nan nan nan 41 nan nan nan nan nan nan nan nan nan nan nan nan nan nan nan nan nan 55 54 53 53 49 48 47 48 50 49 52 51 50 50 51 53 54 54 54 52 52 57 56 50 45 46 47 46 44 43 44 43 37 34 34 32 33 35 36 37 38 38 39 38 37 37
nan nan nan nan nan nan nan nan nan nan nan nan nan nan nan nan nan 45 nan 47 nan 45 nan nan nan nan nan nan nan nan nan nan nan nan nan nan nan 63 68 63 59 53 49 50 52 51 49 48 49 49 50 52 51 48 50 53 56 56 55 53 50 51 52 49 47 47 47 46 43 42 42 39 37 36 34 33 34 35 37 38 39 37 38 37 38 39
nan nan nan nan nan nan nan nan nan nan nan 50 nan nan nan 47 nan nan nan nan nan 42 41 nan nan nan nan nan nan nan nan nan nan nan nan nan 60 61 62 61 57 54 52 51 51 54 53 49 47 46 49 49 48 49 51 52 53 54 54 52 51 50 49 48 49 49 49 48 45 41 38 38 38 36 34 34 34 35 36 38 38 37 38 38 40 42
nan nan nan nan nan nan nan nan nan nan 56 nan 59 nan 57 nan nan nan nan 46 45 42 45 nan nan nan nan nan nan nan nan nan nan nan 46 50 63 59 55 55 55 57 61 61 60 55 49 41 43 46 45 46 48 49 49 50 52 52 52 52 51 51 50 50 49 48 46 43 41 39 38 37 36 34 33 34 34 35 37 38 38 38 39 41 43 45
nan nan nan nan nan nan nan nan nan 55 55 59 63 62 58 nan nan nan 48 51 50 50 53 57 59 nan 59 61 nan nan nan nan nan 52 54 57 58 57 59 62 64 65 61 57 54 49 44 42 44 44 44 46 49 50 50 50 51 51 51 50 50 51 51 50 47 42 38 38 39 39 38 36 33 32 32 33 35 40 40 38 38 40 42 44 47 nan
nan nan nan nan nan nan nan nan nan nan nan 63 59 65 69 62 49 51 55 54 52 55 59 59 60 58 59 nan nan nan nan nan 59 61 60 58 58 57 59 63 66 64 59 51 45 41 45 46 45 46 47 45 45 46 46 48 48 48 48 49 49 49 49 48 43 37 35 36 nan 38 37 35 33 32 32 32 35 36 36 37 42 44 46 48 nan nan
nan nan nan nan 54 nan nan nan nan 49 49 55 64 64 61 61 54 55 nan nan nan nan nan nan nan 58 57 nan nan nan nan nan nan 55 55 53 55 57 60 61 57 51 45 41 42 44 43 46 47 47 43 41 40 41 42 43 44 43 44 44 45 46 47 46 41 37 36 36 37 39 42 45 43 37 35 36 35 31 35 39 44 49 49 50 50 48
nan 40 nan nan 48 53 54 nan nan 48 45 47 56 57 61 62 61 56 nan nan nan nan nan nan 57 55 53 nan 55 nan 54 45 44 42 45 44 48 51 53 52 49 44 43 45 46 45 45 48 50 45 42 39 40 39 40 40 42 42 40 39 42 43 45 nan nan 42 41 41 43 42 39 40 37 35 36 39 44 45 46 48 49 51 50 52 50 nan
nan 47 44 nan nan nan nan nan 48 51 50 nan nan 48 51 52 52 54 57 nan nan nan nan nan 49 51 50 51 57 51 46 39 41 39 42 44 48 47 48 49 46 43 44 45 45 44 43 42 43 44 43 41 40 40 39 38 39 41 37 38 40 43 nan nan nan 55 54 50 43 35 30 28 31 35 38 43 46 49 51 54 54 54 52 50 48 nan
43 44 46 49 39 nan nan nan nan nan 50 50 48 49 49 48 47 48 52 53 nan 47 46 43 43 47 50 53 54 45 38 35 38 39 40 42 44 44 44 45 43 41 40 40 39 41 41 41 42 41 41 42 40 40 39 38 37 37 41 45 47 49 49 47 42 40 42 42 40 34 34 39 42 44 46 47 48 50 53 55 55 53 51 51 50 49
nan 38 47 nan 45 nan nan nan nan nan nan 51 50 50 50 50 49 46 43 44 nan 42 43 nan nan 49 48 48 44 42 38 34 36 35 37 38 39 40 40 41 41 39 36 34 36 37 39 39 40 40 41 41 40 40 39 39 40 45 47 47 47 50 50 49 nan nan nan 41 39 38 nan 44 49 50 49 47 49 52 53 51 52 53 51 50 50 51
nan 36 38 nan 41 40 43 41 nan nan 51 51 nan nan 46 45 46 45 45 45 45 46 46 nan nan 45 45 44 43 43 39 32 32 35 37 37 37 38 38 39 39 37 36 35 35 37 38 39 40 40 40 40 39 41 41 43 46 50 51 49 46 46 nan nan 41 40 nan nan nan nan 44 44 44 45 49 50 52 52 50 46 45 49 48 nan nan nan
nan 42 38 43 nan nan nan 33 36 nan nan nan 41 41 39 36 41 nan nan 44 45 47 nan nan nan nan nan nan 41 37 36 33 35 36 37 38 38 38 38 37 37 36 37 37 39 40 39 39 41 42 41 40 41 45 47 47 49 50 50 50 48 43 40 38 38 nan 38 nan nan 42 42 42 44 49 53 56 56 53 51 50 48 nan nan nan nan nan
nan 37 41 42 40 35 33 38 36 nan nan nan nan nan nan nan nan nan nan nan nan nan nan nan nan nan nan nan nan 34 32 34 35 37 37 36 35 37 36 36 37 38 38 40 43 42 42 42 42 43 43 43 44 47 48 47 45 46 49 50 45 38 33 33 39 42 42 41 41 42 44 47 51 54 56 55 55 nan 53 50 nan nan nan nan nan nan
Wind_Direction
nan nan nan nan nan nan nan nan nan nan nan nan nan nan nan nan nan nan nan nan nan nan nan nan nan 340 344 342 345 342 334 334 342 345 333 336 339 342 341 344 348 351 355 345 342 343 344 336 335 330 322 326 328 338 347 346 347 345 343 338 343 348 345 351 358 2 358 358 5 10 18 21 24 19 18 13 7 1 4 1 359 0 345 336 342 347
nan nan nan nan nan nan nan nan nan nan nan nan nan nan nan nan nan nan nan nan nan nan nan nan nan 336 345 344 340 336 337 341 340 345 338 341 341 340 342 343 345 346 320 324 327 334 331 323 322 315 314 313 319 346 348 351 355 352 346 348 352 349 354 358 1 1 2 5 7 3 15 14 18 25 20 25 19 10 3 356 349 338 336 342 346 343
nan nan nan nan nan nan nan nan nan nan nan nan nan nan nan nan nan nan nan nan nan nan nan nan nan nan nan nan nan 336 348 349 340 345 344 338 339 335 337 337 334 325 325 328 330 330 330 324 319 317 321 329 334 347 358 357 352 355 356 360 355 355 354 360 355 354 7 7 3 1 7 10 21 23 16 11 15 4 346 335 335 336 341 342 334 333
nan nan nan nan nan nan nan nan nan nan nan nan nan nan nan nan nan nan nan nan nan nan nan nan nan nan nan nan nan 345 343 345 341 341 335 332 335 337 338 333 329 329 327 331 328 331 330 328 325 321 325 332 327 343 350 353 354 352 353 356 354 355 353 350 354 357 0 356 357 356 356 1 358 8 360 353 356 344 332 339 340 342 338 329 332 337
nan nan nan nan nan nan nan nan nan nan nan nan nan nan nan nan nan nan nan nan nan nan nan nan nan nan nan nan nan nan 333 327 328 329 329 332 335 337 332 327 329 333 331 328 325 324 325 328 331 329 330 325 328 336 344 345 347 346 349 348 346 345 344 344 345 344 337 334 337 346 337 334 339 328 324 327 324 331 336 331 337 340 331 333 335 328
nan nan nan nan nan nan nan nan nan nan nan nan nan nan nan nan nan nan nan nan nan nan nan nan nan nan nan nan nan 330 nan 327 319 323 339 338 332 325 322 325 328 331 330 326 324 322 322 325 327 327 328 326 324 328 331 327 333 327 335 334 328 327 330 332 333 329 325 330 334 336 337 336 327 328 322 320 nan 323 nan nan 326 323 327 327 324 327
nan nan nan nan nan nan nan nan nan nan nan nan nan nan nan nan nan nan nan nan nan nan nan nan nan nan nan nan nan 324 nan nan 324 339 348 346 339 335 326 319 318 323 324 319 316 314 316 320 322 327 330 328 323 326 312 310 316 320 320 323 325 318 317 318 318 317 318 322 327 331 334 331 330 326 nan nan nan nan nan nan nan 319 319 321 320 323
nan nan nan nan nan nan nan nan nan nan nan nan nan nan nan nan nan nan nan nan nan nan nan nan nan nan nan nan nan nan nan nan nan 353 352 349 347 345 337 326 317 316 321 321 322 320 317 317 320 324 327 324 324 317 310 310 305 314 312 310 314 303 303 304 305 310 314 317 319 321 324 324 322 nan nan 320 317 316 316 nan 315 314 319 nan nan nan
nan nan nan nan nan nan nan nan nan nan nan nan nan nan nan nan nan nan nan nan nan nan nan nan nan nan nan nan nan nan nan nan nan nan 354 350 351 348 343 336 328 322 322 320 316 319 320 320 318 315 319 318 314 311 314 311 307 305 301 301 294 295 293 295 301 305 308 309 314 317 316 313 313 nan nan 310 308 306 nan nan 305 307 310 nan 308 312
nan nan nan nan nan nan nan nan nan nan nan nan nan nan nan nan nan nan nan nan nan nan nan nan nan nan nan nan nan nan nan nan nan 359 352 348 348 344 341 336 331 323 319 318 317 317 318 316 313 314 312 309 309 307 310 308 301 299 293 294 294 292 289 291 297 302 304 305 306 308 307 nan 303 301 298 nan nan nan nan nan 306 305 nan nan nan nan
nan nan nan nan nan nan nan nan nan nan nan nan nan nan nan nan nan nan nan nan nan nan nan nan nan nan nan nan nan nan nan nan nan nan 341 339 340 341 337 333 327 321 318 314 310 309 315 318 316 312 313 308 302 301 304 303 302 299 296 296 297 296 289 290 295 298 302 301 303 305 303 nan nan nan nan nan nan nan nan nan nan nan nan nan nan 309
nan nan nan nan nan nan nan nan nan nan nan nan nan nan nan nan nan nan nan nan nan nan nan nan nan nan nan nan nan nan nan nan nan nan 344 341 341 337 329 329 331 324 317 313 311 311 311 310 314 314 313 308 307 301 300 300 300 299 297 296 298 292 293 291 292 295 298 298 300 299 nan nan nan nan nan nan nan nan nan nan nan nan nan nan nan nan
nan nan nan nan nan nan nan nan nan nan nan nan nan nan nan nan nan nan nan nan nan nan nan nan nan nan nan nan nan nan nan nan nan nan nan 342 337 326 322 332 338 332 319 308 309 311 310 313 313 316 314 308 309 307 304 303 302 300 298 300 300 300 296 295 293 296 297 296 297 nan nan nan nan nan nan nan nan nan nan nan nan nan nan nan nan nan
nan nan nan nan nan nan nan nan nan nan nan nan nan nan nan nan nan nan nan nan nan nan nan nan nan nan nan nan nan nan nan nan nan nan nan 330 320 315 323 329 336 341 336 323 314 316 323 324 318 316 314 313 311 309 307 306 304 302 300 303 306 307 302 298 297 298 297 nan nan nan nan nan nan nan nan nan nan 302 nan nan nan nan nan nan nan 305
nan nan nan nan nan nan nan nan nan nan nan nan nan nan nan nan nan nan nan nan nan nan nan nan nan nan nan nan nan nan nan nan nan nan nan nan 313 316 322 327 334 342 343 333 325 323 325 327 323 317 315 314 312 310 309 306 307 305 306 308 313 310 308 307 307 302 302 nan nan nan nan nan nan nan nan nan nan 300 nan nan nan nan nan nan nan nan
nan nan nan nan nan nan nan nan nan nan nan nan nan nan nan nan nan nan nan nan nan nan nan nan nan nan nan nan nan nan nan nan nan nan nan nan 312 308 312 323 330 340 345 334 320 312 311 315 317 314 313 313 310 311 307 309 308 311 314 315 317 317 315 314 311 308 307 nan nan nan nan nan nan 296 nan 298 296 nan nan nan nan nan nan nan nan nan
nan nan nan nan nan nan nan nan nan nan nan nan nan nan nan nan nan nan nan nan nan nan nan nan nan nan nan nan nan nan nan nan nan nan nan nan nan 315 319 325 333 342 352 351 339 328 324 315 313 312 312 310 309 306 308 310 314 320 319 319 319 316 315 316 317 314 310 nan nan nan nan nan nan nan nan nan nan nan nan nan nan nan nan nan nan nan
nan nan nan nan nan nan nan nan nan nan nan nan nan nan nan nan nan nan nan nan nan nan nan nan nan nan nan nan nan nan nan nan nan nan nan nan nan nan nan 330 338 346 350 349 349 345 342 340 333 319 312 314 314 315 313 316 319 322 323 324 322 318 320 321 320 317 312 311 nan nan nan nan nan nan nan nan nan nan nan nan nan nan nan nan nan nan
nan nan nan nan nan nan nan nan nan nan nan nan nan nan nan nan nan nan nan nan nan nan nan nan nan nan nan nan nan nan nan nan 305 302 295 nan nan nan nan nan 338 345 342 343 344 337 335 337 335 328 327 326 323 321 321 322 323 324 326 326 325 325 325 324 321 318 314 315 nan nan nan nan nan nan nan nan nan nan nan nan nan nan nan nan nan 318
nan nan nan nan nan nan nan nan nan nan nan nan nan nan nan nan nan nan nan nan nan nan nan nan nan nan nan nan nan nan nan nan 300 298 300 304 nan nan nan nan nan 335 337 341 344 340 337 338 340 339 331 328 329 326 325 325 324 329 330 327 324 320 318 320 321 317 315 nan nan nan nan nan nan nan nan nan nan nan nan nan nan nan nan nan nan nan
nan nan nan nan nan nan nan nan nan nan nan nan nan nan nan nan nan nan nan nan nan nan nan nan nan nan nan nan nan nan nan nan nan 301 299 304 nan nan 317 nan nan 331 334 338 342 341 338 339 343 344 333 326 324 321 318 319 327 331 325 323 321 320 321 322 319 314 313 310 nan nan nan nan nan nan nan nan nan nan nan nan nan nan nan nan nan nan
nan nan nan nan nan nan nan nan nan nan nan nan nan nan nan nan nan nan nan nan nan nan nan nan nan nan nan nan nan nan nan nan nan nan 298 nan nan nan nan 317 nan nan 330 nan 340 339 339 338 343 345 339 321 315 317 320 321 322 321 321 322 320 318 318 318 314 312 310 308 307 nan nan nan nan nan nan nan nan nan nan nan nan nan nan nan nan nan
nan nan nan nan nan nan nan nan nan nan nan nan nan nan nan nan nan nan nan nan nan nan nan nan nan nan nan nan nan nan nan nan nan nan nan nan nan nan nan nan nan nan nan nan nan nan 333 335 334 334 335 332 330 329 327 321 323 325 323 318 315 317 318 314 309 307 308 309 306 304 nan nan nan nan nan nan nan nan nan nan nan nan nan nan nan nan
nan nan nan nan nan nan nan nan nan nan nan nan nan nan nan nan nan nan nan nan nan nan nan nan nan nan nan nan nan nan nan nan nan nan nan nan nan nan nan nan nan nan nan nan 329 nan 325 323 325 318 322 328 326 325 327 326 327 325 319 316 314 317 314 308 307 306 304 302 301 300 nan nan nan nan nan nan nan nan nan nan nan nan nan nan nan nan
nan nan nan nan nan nan nan nan nan nan nan nan nan nan nan nan nan nan nan nan nan nan nan nan nan nan nan nan nan nan nan nan nan nan nan nan nan nan nan nan nan nan nan 322 327 324 319 313 315 323 329 333 333 330 328 327 325 321 319 315 316 316 311 305 302 302 301 301 300 297 299 nan nan nan nan nan nan nan nan nan 307 nan nan nan nan nan
nan nan nan nan nan nan nan nan nan nan nan nan nan nan nan nan nan nan nan nan nan nan nan nan nan nan nan nan nan nan nan nan nan nan nan nan nan nan 308 nan nan nan 316 320 323 321 321 322 324 327 329 331 333 330 327 325 323 320 317 320 318 315 309 304 300 303 301 299 296 294 298 299 nan nan nan nan nan nan nan nan nan nan nan nan nan nan
nan nan nan nan nan nan nan nan nan nan nan nan nan nan nan nan nan nan nan nan nan nan nan nan nan nan nan nan nan nan nan nan nan nan nan nan nan 304 302 306 312 316 318 317 316 320 320 316 323 327 332 333 332 329 326 325 323 319 317 320 321 317 310 303 301 301 302 302 304 296 294 292 290 nan nan nan nan nan 306 310 nan nan nan nan nan nan
nan nan nan nan nan nan nan nan nan nan nan nan nan nan nan nan nan nan nan nan nan nan nan nan nan nan nan nan nan nan nan nan nan nan nan nan nan 296 304 310 314 315 319 320 315 315 318 325 327 327 329 329 326 327 325 322 321 319 317 322 323 316 308 302 303 305 306 305 302 295 283 277 278 nan nan 300 nan nan 306 307 nan nan nan nan nan nan
nan nan nan nan nan nan nan nan nan nan nan nan nan nan nan nan nan nan nan nan nan nan nan nan nan nan nan nan nan nan nan nan nan nan nan nan nan 295 304 311 311 312 315 318 323 321 317 315 319 320 318 320 320 322 322 316 315 313 314 319 316 311 312 307 305 306 301 295 284 265 nan nan nan 291 296 291 nan nan 304 303 nan nan nan nan nan nan
nan nan nan nan nan nan nan nan nan nan nan nan nan nan nan nan nan nan nan nan nan nan nan nan nan nan nan nan nan nan nan nan nan nan nan nan nan nan 301 302 305 308 312 317 323 323 315 313 313 315 316 316 316 316 315 313 312 314 316 315 309 307 304 300 301 298 292 291 283 275 275 279 286 288 289 288 nan nan 310 nan nan nan nan nan nan nan
nan nan nan nan nan nan nan nan nan nan nan nan nan nan nan nan nan nan nan nan nan nan nan nan nan nan nan nan nan nan nan nan nan nan nan nan nan nan 299 302 305 309 313 318 321 321 315 310 310 313 316 319 317 314 313 313 304 300 303 307 311 312 310 305 299 295 291 285 284 291 298 292 285 283 285 283 277 293 316 nan nan nan nan nan nan nan
nan nan 212 nan nan nan nan nan nan nan nan nan nan nan nan nan nan nan nan nan nan nan nan nan nan nan nan nan nan nan nan nan nan nan nan nan nan nan nan 297 297 300 305 309 313 313 311 306 303 304 313 316 312 308 306 302 305 307 310 312 315 314 308 301 295 294 292 299 300 301 301 291 279 275 281 280 271 294 320 nan 313 nan nan nan nan nan
nan nan nan nan nan nan nan nan nan nan nan nan nan nan nan nan nan nan nan nan nan nan nan nan nan nan nan nan nan nan nan nan nan nan nan nan nan nan nan nan 292 296 301 305 308 310 310 309 308 309 311 311 306 302 302 304 305 310 311 314 306 289 283 283 291 293 294 296 293 292 290 282 277 278 284 280 278 298 317 319 315 nan nan nan nan nan
nan nan nan nan nan nan nan nan nan nan nan nan nan nan nan nan nan nan nan nan nan nan nan nan nan nan nan nan nan nan nan nan nan nan nan nan nan nan nan nan nan nan nan 301 305 308 308 303 299 299 302 300 297 300 302 304 311 310 304 296 292 299 303 303 293 287 285 286 288 289 286 287 289 290 286 281 288 306 317 317 nan nan nan nan 308 311
nan nan nan nan nan nan nan nan nan nan nan nan nan nan nan nan nan nan nan nan nan nan nan nan 231 240 250 nan nan nan nan nan nan nan nan nan nan nan nan nan nan nan nan nan 298 300 299 294 285 283 285 287 288 289 290 289 286 284 283 287 288 289 291 285 279 278 285 289 291 293 291 293 302 306 297 294 302 311 318 317 nan nan nan nan nan nan
nan nan nan nan nan nan nan nan nan nan nan nan nan nan nan nan nan nan nan nan nan nan nan nan nan 234 243 254 255 256 nan nan nan nan nan nan nan nan nan nan nan nan nan nan nan nan nan 288 290 292 292 295 295 295 294 291 290 290 292 294 295 298 302 298 291 291 294 299 300 298 297 305 313 311 307 306 311 317 319 316 nan nan nan 314 nan nan
nan nan nan nan nan nan nan nan nan nan 212 nan nan nan nan nan nan nan nan nan nan nan nan nan nan nan nan nan 258 262 nan nan nan nan nan nan nan nan nan nan nan nan nan 285 290 293 291 290 292 293 291 291 293 293 292 292 293 295 297 299 302 304 305 306 305 306 311 312 310 306 311 320 320 315 312 311 316 320 317 314 nan nan nan 318 322 323
nan nan nan nan nan nan nan nan nan nan nan 216 nan nan nan nan nan nan nan nan nan nan 233 nan nan nan nan nan nan nan nan nan nan nan nan nan nan nan nan nan 272 277 280 281 282 282 284 286 286 288 291 290 289 291 293 294 295 296 298 301 306 309 311 317 316 309 310 312 311 309 311 318 322 321 318 316 319 320 316 313 312 315 316 321 321 321
nan nan nan nan nan nan nan nan nan nan nan nan nan nan nan nan nan 228 nan 230 nan 228 nan nan nan nan nan nan nan nan nan nan nan nan nan nan nan 264 269 271 274 276 283 286 284 282 286 289 289 289 289 290 291 293 293 294 296 297 300 305 309 311 315 319 315 312 311 311 310 310 314 319 323 323 318 318 319 315 312 312 315 317 316 319 316 315
nan nan nan nan nan nan nan nan nan nan nan 220 nan nan nan 225 nan nan nan nan nan 225 235 nan nan nan nan nan nan nan nan nan nan nan nan nan 264 268 274 276 276 277 277 278 277 284 289 288 284 284 288 290 290 290 292 294 296 300 305 309 311 313 316 317 317 315 312 310 311 314 314 315 319 319 315 314 313 308 308 310 311 313 316 314 313 313
nan nan nan nan nan nan nan nan nan nan 222 nan 216 nan 213 nan nan nan nan 236 233 234 242 nan nan nan nan nan nan nan nan nan nan nan 262 265 267 268 271 273 275 279 284 283 283 284 286 286 288 291 291 289 292 292 293 295 298 302 306 309 312 317 320 320 317 314 312 309 310 312 312 311 313 314 311 308 307 305 304 306 311 312 312 311 308 306
nan nan nan nan nan nan nan nan nan 225 226 220 213 215 218 nan nan nan 236 238 239 241 246 251 253 nan 254 254 nan nan nan nan nan 259 261 263 269 273 274 273 272 274 277 277 280 283 283 283 283 284 285 289 293 294 295 296 299 302 305 309 317 323 320 318 317 313 307 307 309 311 308 305 303 304 301 297 292 292 297 298 301 309 311 307 306 nan
nan nan nan nan nan nan nan nan nan nan nan 218 216 220 222 231 238 241 244 238 240 244 248 250 252 254 256 nan nan nan nan nan 262 260 260 266 271 274 275 274 276 280 282 279 276 279 284 284 287 292 294 294 294 295 297 299 301 305 308 313 321 316 314 316 314 308 302 303 nan 307 303 299 300 299 294 289 289 295 300 302 307 310 310 308 nan nan
nan nan nan nan 212 nan nan nan nan 227 228 223 231 232 225 229 238 243 nan nan nan nan nan nan nan 251 255 nan nan nan nan nan nan 260 261 263 268 270 271 273 275 277 276 273 275 281 281 282 285 289 292 295 294 295 296 299 303 306 310 319 314 310 311 310 307 299 296 300 304 300 289 282 280 280 277 276 279 285 298 309 310 308 311 311 311 312
nan 229 nan nan 219 222 222 nan nan 228 231 232 237 234 231 229 232 238 nan nan nan nan nan nan 251 250 251 nan 255 nan 260 256 255 255 262 265 266 269 272 275 279 281 282 284 286 285 286 290 293 293 296 296 295 295 298 299 304 306 313 312 304 308 308 nan nan 293 285 287 293 298 292 286 290 291 287 291 296 299 302 303 305 308 312 311 309 nan
nan 230 228 nan nan nan nan nan 232 233 234 nan nan 240 237 233 231 235 239 nan nan nan nan nan 255 256 255 258 258 252 253 253 255 258 261 262 264 264 266 269 272 276 280 281 282 283 284 284 289 295 298 296 297 299 299 299 299 307 310 298 297 297 nan nan nan 287 281 284 289 287 281 280 283 284 285 290 294 297 300 305 308 307 307 306 309 nan
234 238 236 243 241 nan nan nan nan nan 239 237 243 247 246 241 237 234 236 240 nan 246 249 252 258 261 262 258 259 256 251 255 258 260 263 265 266 268 270 273 276 280 284 286 286 287 287 290 292 293 292 293 294 296 297 298 302 299 292 293 295 294 290 286 281 277 278 290 295 289 283 289 292 290 288 290 293 296 299 302 305 307 307 308 311 314
nan 239 243 nan 241 nan nan nan nan nan nan 252 251 249 246 241 238 239 243 244 nan 245 248 nan nan 251 255 260 262 260 255 254 257 260 263 265 265 266 268 272 276 278 281 283 285 285 285 284 284 286 289 291 294 296 299 298 294 294 295 294 294 291 290 293 nan nan nan 293 292 285 nan 288 293 294 294 296 297 297 296 298 302 305 306 309 312 313
nan 237 245 nan 245 240 243 247 nan nan 247 246 nan nan 248 242 239 240 245 247 244 241 240 nan nan 256 258 261 260 258 253 254 264 268 269 269 268 269 271 274 277 280 282 284 282 282 283 285 287 287 287 289 292 296 294 292 293 292 292 292 291 291 nan nan 290 288 nan nan nan nan 287 291 292 295 298 296 293 291 291 295 297 300 301 nan nan nan
nan 237 241 248 nan nan nan 252 251 nan nan nan 252 257 257 251 245 nan nan 247 249 248 nan nan nan nan nan nan 257 260 265 268 270 270 269 270 272 273 273 274 276 277 277 275 276 279 279 281 285 286 286 288 290 291 291 290 289 289 291 293 293 292 288 287 292 nan 293 nan nan 284 286 287 290 294 297 298 298 296 293 288 292 nan nan nan nan nan
nan 247 247 250 256 252 244 247 249 nan nan nan nan nan nan nan nan nan nan nan nan nan nan nan nan nan nan nan nan 262 265 272 273 273 274 274 276 277 278 279 279 280 281 282 283 282 284 286 286 284 285 286 285 286 285 282 281 285 290 291 294 298 300 296 293 297 298 295 292 291 289 290 292 295 296 298 298 nan 296 296 nan nan nan nan nan nan